Kelso, MO

1:32 PM CST on February 21, 2017 (GMT -0600)
Cape Girardeau Regional

Weather History for KCGI - October, 2012

Change the Weather History Date:

Tuesday, October 30, 2012

  Actual Average Record
Temperature  
Mean Temperature 47 °F 53 °F  
Max Temperature 60 °F 66 °F 82 °F (1971)
Min Temperature 33 °F 41 °F 24 °F (1980)
Degree Days  
Heating Degree Days 18 12  
Month to date heating degree days 279 244  
Since 1 July heating degree days 325 293  
Cooling Degree Days 0 0  
Month to date cooling degree days 20 29  
Year to date cooling degree days 1784 1451  
Moisture  
Dew Point 27 °F    
Average Humidity 50    
Maximum Humidity 75    
Minimum Humidity 25    
Precipitation  
Precipitation 0.00 in 0.13 in 1.65 in (2009)
Month to date precipitation 2.58 3.67  
Year to date precipitation 23.96 38.00  
Sea Level Pressure  
Sea Level Pressure 29.96 in    
Wind  
Wind Speed 11 mph (NW)    
Max Wind Speed 25 mph    
Max Gust Speed 36 mph    
Visibility 10 miles    
Events      
T = Trace of Precipitation, MM = Missing Value Source: NWS Daily Summary

Daily Weather History Graph

Daily Weather History Graph

Search for Another Location

Airport or City:

Trip Planner

Search our weather history database for the weather conditions in past years. The results will help you decide how hot, cold, wet, or windy it might be!

Date:

Astronomy

Oct. 30, 2012 Rise Set
Actual Time 7:21 AM CDT 6:02 PM CDT
Civil Twilight 6:54 AM CDT 6:28 PM CDT
Nautical Twilight 6:23 AM CDT 6:59 PM CDT
Astronomical Twilight 5:53 AM CDT 7:29 PM CDT
Moon 6:33 PM CDT (10/30) 8:06 AM CDT (10/30)
Length of Visible Light 11h 34m
Length of Day
10h 40m
Full, 99% of the Moon is Illuminated
Oct 30
Full
Nov 6
Last Quarter
Nov 13
New
Nov 20
First Quarter
Nov 28
Full

Hourly Weather History & Observations

Time (CDT) Temp. Windchill Dew Point Humidity Pressure Visibility Wind Dir Wind Speed Gust Speed Precip Events Conditions
12:53 AM 33.1 °F 26.9 °F 27.0 °F 78% 30.07 in 10.0 mi WNW 6.9 mph - N/A   Clear
1:53 AM 37.0 °F 33.3 °F 27.0 °F 67% 30.06 in 10.0 mi NW 4.6 mph - N/A   Clear
2:53 AM 35.1 °F 31.0 °F 26.1 °F 70% 30.05 in 10.0 mi NW 4.6 mph - N/A   Clear
3:53 AM 39.0 °F 33.4 °F 27.0 °F 62% 30.02 in 10.0 mi NW 8.1 mph - N/A   Clear
4:53 AM 37.9 °F 32.7 °F 26.1 °F 62% 30.02 in 10.0 mi NW 6.9 mph - N/A   Clear
5:53 AM 37.4 °F 32.1 °F 26.6 °F 65% 30.01 in 10.0 mi NW 6.9 mph - N/A   Clear
6:53 AM 35.1 °F 28.6 °F 27.0 °F 72% 30.01 in 10.0 mi WNW 8.1 mph - N/A   Clear
7:53 AM 34.0 °F 28.0 °F 27.0 °F 75% 30.01 in 10.0 mi WNW 6.9 mph - N/A   Clear
8:53 AM 41.0 °F 35.8 °F 26.1 °F 55% 30.01 in 10.0 mi NW 8.1 mph - N/A   Clear
9:53 AM 46.0 °F 39.0 °F 26.1 °F 46% 30.00 in 10.0 mi NW 17.3 mph 23.0 mph N/A   Clear
10:53 AM 50.0 °F - 26.1 °F 39% 29.99 in 10.0 mi NNW 15.0 mph 23.0 mph N/A   Clear
11:53 AM 53.1 °F - 26.1 °F 35% 29.96 in 10.0 mi NNW 20.7 mph 25.3 mph N/A   Clear
12:53 PM 57.0 °F - 26.1 °F 30% 29.93 in 10.0 mi NNW 20.7 mph 27.6 mph N/A   Clear
1:53 PM 57.9 °F - 25.0 °F 28% 29.90 in 10.0 mi NW 21.9 mph 32.2 mph N/A   Clear
2:53 PM 60.1 °F - 25.0 °F 26% 29.88 in 10.0 mi NW 18.4 mph 26.5 mph N/A   Clear
3:53 PM 59.0 °F - 25.0 °F 27% 29.87 in 10.0 mi NW 17.3 mph 24.2 mph N/A   Clear
4:53 PM 57.9 °F - 26.1 °F 30% 29.87 in 10.0 mi WNW 16.1 mph 21.9 mph N/A   Clear
5:53 PM 54.0 °F - 26.1 °F 34% 29.88 in 10.0 mi WNW 10.4 mph - N/A   Clear
6:53 PM 46.4 °F 42.4 °F 28.4 °F 50% 29.89 in 10.0 mi WNW 8.1 mph - N/A   Clear
7:53 PM 42.1 °F 37.7 °F 28.0 °F 58% 29.90 in 10.0 mi WNW 6.9 mph - N/A   Clear
8:53 PM 41.0 °F 37.1 °F 28.0 °F 60% 29.91 in 10.0 mi WNW 5.8 mph - N/A   Clear
9:53 PM 39.0 °F 33.4 °F 28.0 °F 65% 29.93 in 10.0 mi West 8.1 mph - N/A   Clear
10:53 PM 39.9 °F 34.5 °F 28.0 °F 63% 29.92 in 10.0 mi West 8.1 mph - N/A   Clear
11:53 PM 37.9 °F 32.1 °F 28.0 °F 68% 29.92 in 10.0 mi West 8.1 mph - N/A   Clear